Regional Weather Roundup
Issued by NWS

Home | Current Version | Previous Version | Text Only | Print | Product List | Glossary On
Versions: 1 2 3 4 5 6 7 8 9 10 11 12 13 14 15 16 17 18 19 20 21 22 23 24 25 26 27 28 29 30 31 32 33 34 35 36 37 38 39 40 41 42 43 44 45 46 47 48 49 50
000
ASUS43 KTOP 202059
RWRKS

WEATHER ROUNDUP FOR KANSAS
NATIONAL WEATHER SERVICE GOODLAND KS
300 PM CST SAT DEC 20 2014

NOTE:  "FAIR" INDICATES FEW OR NO CLOUDS BELOW 12,000 FEET WITH NO
SIGNIFICANT WEATHER AND/OR OBSTRUCTIONS TO VISIBILITY.

KSZ001>006-013>018-027>032-041>047-202200-
NORTHWEST KANSAS

CITY           SKY/WX    TMP DP  RH WIND       PRES   REMARKS
GOODLAND       MOSUNNY   53  25  33 CALM      29.96S
HAYS           SUNNY     52  34  50 S8        29.99F
HILL CITY      MOSUNNY   54  32  43 SW3       29.97F
RUSSELL        SUNNY     51  40  65 S13       29.99F
$$

KSZ061>065-074>080-084>089-202200-
SOUTHWEST KANSAS

CITY           SKY/WX    TMP DP  RH WIND       PRES   REMARKS
DODGE CITY     MOSUNNY   41  35  79 S13       30.01F HAZE
ELKHART          N/A    N/A N/A N/A MISG        N/A
GARDEN CITY    PTSUNNY   49  34  56 SW12      29.99S
GREAT BEND     MOSUNNY   52  41  66 S15       30.02F
LIBERAL        MOSUNNY   46  37  71 S13       30.02S
$$

KSZ066>073-081>083-090>101-202200-
SOUTHEAST KANSAS

CITY           SKY/WX    TMP DP  RH WIND       PRES   REMARKS
CHANUTE        SUNNY     47  37  68 S10       30.14F
COFFEYVILLE    MOSUNNY   45  35  68 S12       30.17F
HUTCHINSON     MOSUNNY   51  37  58 S18       30.06S
MEDICINE LODGE   N/A     46  38  73 S12       30.07F
NEWTON         SUNNY     46  36  66 S17G24    30.08F
PARSONS        MOSUNNY   46  36  68 S9        30.16F
WICHITA INTL   CLOUDY    49  37  63 S15       30.09F
WICHITA JABRA  PTSUNNY   47  37  68 S16       30.09S
WINFIELD       PTSUNNY   47  37  68 SW13      30.13S
$$

KSZ007>012-019>026-033>040-048>060-102>105-202200-
NORTHEAST KANSAS

CITY           SKY/WX    TMP DP  RH WIND       PRES   REMARKS
CONCORDIA      MOSUNNY   42  35  76 S6        30.02F
EMPORIA        SUNNY     48  38  68 SW16      30.08F
LAWRENCE       CLOUDY    48  38  68 S10       30.11R
MANHATTAN      MOSUNNY   48  40  73 S12       30.06S
OLATHE IND     CLOUDY    45  38  76 S14       30.12R
OLATHE EXE     CLOUDY    45  38  76 S12       30.11S
SALINA         SUNNY     52  41  66 S12       30.04F
TOPEKA BILLARD PTSUNNY   51  40  65 S10       30.10R
TOPEKA FORBES  MOSUNNY   49  39  68 SW10      30.08S
$$



USA.gov is the U.S. government's official web portal to all federal, state and local government web resources and services.